Location: ????
(30.2663°N, 31.2484°E)
Time: 12:46:06
(UTC+00:00)

Cosmos 1697 Rocket - Pass Details

Date: 27 September 2022
Orbit: 831 x 845 km, 71.0° (Epoch: 26 November)

Event Time Altitude Azimuth Distance (km) Brightness Sun altitude
Rises 03:03:30 0° 335° (NNW) 3,394 5.6 -10.0°
Reaches altitude 10° 03:05:59 10° 331° (NNW) 2,459 4.9 -9.5°
Maximum altitude 03:11:30 58° 254° (WSW) 973 2.7 -8.3°
Drops below altitude 10° 03:17:01 10° 176° (S) 2,453 5.2 -7.1°
Sets 03:19:29 0° 172° (S) 3,385 5.9 -6.6°
